| time (UTC) | temp F | wind direction | speed knots | gust knots | rain 1hr in | rain 24hr in | rain mn in | humidity % | barometer mb |
| 20260506181530 | 81 | 102 | 0.0 | 3.5 | 0.00 | 0.00 | 0.00 | 87 | 1009.2 |
| 20260506180011 | 80 | 136 | 1.7 | 2.6 | 0.00 | 0.00 | 0.00 | 86 | 1009.6 |
| 20260506174511 | 80 | 269 | 0.0 | 0.0 | 0.00 | 0.00 | 0.00 | 85 | 1010.0 |
| 20260506173011 | 81 | 269 | 0.0 | 1.7 | 0.00 | 0.00 | 0.00 | 84 | 1010.4 |
| 20260506171515 | 81 | 155 | 0.0 | 0.0 | 0.00 | 0.00 | 0.00 | 85 | 1010.6 |
| 20260506170008 | 81 | 140 | 0.9 | 2.6 | 0.00 | 0.00 | 0.00 | 86 | 1010.5 |
| 20260506164510 | 80 | 194 | 1.7 | 3.5 | 0.00 | 0.00 | 0.00 | 85 | 1010.6 |
| 20260506163012 | 80 | 155 | 1.7 | 5.2 | 0.00 | 0.00 | 0.00 | 85 | 1010.7 |
| 20260506161503 | 80 | 165 | 2.6 | 4.3 | 0.00 | 0.00 | 0.00 | 86 | 1010.3 |
| 20260506160002 | 80 | 219 | 0.9 | 4.3 | 0.00 | 0.00 | 0.00 | 86 | 1010.0 |
| 20260506154501 | 80 | 165 | 2.6 | 5.2 | 0.00 | 0.00 | 0.00 | 85 | 1009.8 |
| 20260506153059 | 80 | 216 | 1.7 | 5.2 | 0.00 | 0.00 | 0.00 | 87 | 1009.6 |
| 20260506151558 | 79 | 144 | 1.7 | 5.2 | 0.00 | 0.00 | 0.00 | 89 | 1009.7 |
| 20260506150055 | 78 | 138 | 1.7 | 4.3 | 0.00 | 0.00 | 0.00 | 91 | 1009.9 |
| 20260506144555 | 77 | 160 | 0.9 | 4.3 | 0.00 | 0.00 | 0.00 | 92 | 1009.6 |
| 20260506143049 | 77 | 159 | 3.5 | 5.2 | 0.00 | 0.00 | 0.00 | 93 | 1009.3 |
| 20260506141548 | 76 | 161 | 3.5 | 6.1 | 0.00 | 0.00 | 0.00 | 94 | 1009.2 |
| 20260506140046 | 76 | 146 | 2.6 | 5.2 | 0.00 | 0.00 | 0.00 | 95 | 1009.2 |
| 20260506134545 | 75 | 157 | 2.6 | 7.0 | 0.00 | 0.00 | 0.00 | 95 | 1009.3 |
| 20260506133058 | 75 | 149 | 1.7 | 4.3 | 0.00 | 0.00 | 0.00 | 95 | 1009.4 |
| 20260506131544 | 75 | 159 | 1.7 | 3.5 | 0.00 | 0.00 | 0.00 | 95 | 1009.5 |
| 20260506130042 | 75 | 153 | 1.7 | 3.5 | 0.00 | 0.00 | 0.00 | 95 | 1009.3 |
| 20260506124541 | 75 | 176 | 0.0 | 1.7 | 0.00 | 0.00 | 0.00 | 95 | 1009.2 |
| 20260506123039 | 75 | 166 | 0.0 | 0.0 | 0.00 | 0.00 | 0.00 | 95 | 1009.0 |
| 20260506121537 | 75 | 158 | 0.0 | 0.9 | 0.00 | 0.00 | 0.00 | 95 | 1009.0 |
| 20260506120036 | 75 | 171 | 0.0 | 2.6 | 0.00 | 0.00 | 0.00 | 95 | 1008.9 |
| 20260506114539 | 75 | 167 | 1.7 | 3.5 | 0.00 | 0.00 | 0.00 | 95 | 1008.9 |
| 20260506113034 | 75 | 150 | 1.7 | 5.2 | 0.00 | 0.00 | 0.00 | 95 | 1008.6 |
| 20260506111533 | 75 | 190 | 1.7 | 7.0 | 0.00 | 0.00 | 0.00 | 95 | 1008.7 |
| 20260506110039 | 75 | 184 | 2.6 | 6.1 | 0.00 | 0.00 | 0.00 | 95 | 1008.6 |
| 20260506104554 | 75 | 167 | 3.5 | 7.0 | 0.00 | 0.00 | 0.00 | 95 | 1008.4 |
| 20260506103038 | 75 | 186 | 4.3 | 7.8 | 0.00 | 0.00 | 0.00 | 95 | 1008.0 |
| 20260506101532 | 75 | 141 | 4.3 | 13.0 | 0.00 | 0.00 | 0.00 | 95 | 1007.8 |
| 20260506100039 | 75 | 171 | 3.5 | 8.7 | 0.00 | 0.00 | 0.00 | 95 | 1007.8 |
| 20260506094533 | 75 | 205 | 3.5 | 7.0 | 0.00 | 0.00 | 0.00 | 95 | 1007.8 |
| 20260506093027 | 75 | 191 | 2.6 | 5.2 | 0.00 | 0.00 | 0.00 | 95 | 1007.7 |
| 20260506091528 | 75 | 160 | 4.3 | 8.7 | 0.00 | 0.00 | 0.00 | 95 | 1007.4 |
| 20260506090025 | 75 | 161 | 3.5 | 7.8 | 0.00 | 0.00 | 0.00 | 95 | 1007.5 |
| 20260506084525 | 75 | 180 | 2.6 | 8.7 | 0.00 | 0.00 | 0.00 | 95 | 1007.6 |
| 20260506083036 | 75 | 157 | 4.3 | 12.2 | 0.00 | 0.00 | 0.00 | 95 | 1007.3 |
| 20260506081523 | 75 | 159 | 6.1 | 11.3 | 0.00 | 0.00 | 0.00 | 95 | 1007.4 |
| 20260506073015 | 75 | 171 | 5.2 | 9.6 | 0.00 | 0.00 | 0.00 | 94 | 1008.0 |
| 20260506071513 | 75 | 158 | 5.2 | 9.6 | 0.00 | 0.00 | 0.00 | 93 | 1008.2 |
| 20260506061506 | 76 | 171 | 6.1 | 11.3 | 0.00 | 0.00 | 0.00 | 92 | 1008.6 |
| 20260506044611 | 77 | 169 | 4.3 | 8.7 | 0.00 | 0.00 | 0.00 | 91 | 1008.6 |
| 20260506043058 | 77 | 155 | 6.1 | 11.3 | 0.00 | 0.00 | 0.00 | 90 | 1008.3 |
| 20260506041556 | 77 | 161 | 7.8 | 15.6 | 0.00 | 0.00 | 0.00 | 90 | 1008.1 |
| 20260506040054 | 77 | 166 | 7.0 | 12.2 | 0.00 | 0.00 | 0.00 | 90 | 1008.0 |
| 20260506034559 | 77 | 163 | 6.1 | 12.2 | 0.00 | 0.00 | 0.00 | 89 | 1008.0 |
| 20260506033054 | 77 | 163 | 6.1 | 9.6 | 0.00 | 0.00 | 0.00 | 89 | 1007.7 |
| 20260506031557 | 77 | 221 | 7.0 | 12.2 | 0.00 | 0.00 | 0.00 | 88 | 1007.7 |
| 20260506030052 | 77 | 204 | 5.2 | 8.7 | 0.00 | 0.00 | 0.00 | 88 | 1007.8 |
| 20260506024552 | 78 | 151 | 4.3 | 9.6 | 0.00 | 0.00 | 0.00 | 87 | 1007.5 |
| 20260506023054 | 78 | 161 | 4.3 | 8.7 | 0.00 | 0.00 | 0.00 | 87 | 1007.4 |
| 20260506021557 | 78 | 218 | 3.5 | 7.0 | 0.00 | 0.00 | 0.00 | 86 | 1007.3 |
| 20260506020050 | 78 | 196 | 4.3 | 7.8 | 0.00 | 0.00 | 0.00 | 86 | 1007.0 |
| 20260506014550 | 78 | 169 | 5.2 | 8.7 | 0.00 | 0.00 | 0.00 | 86 | 1006.8 |
| 20260506013049 | 79 | 156 | 3.5 | 8.7 | 0.00 | 0.00 | 0.00 | 85 | 1006.5 |
| 20260506011552 | 79 | 158 | 5.2 | 10.4 | 0.00 | 0.00 | 0.00 | 84 | 1006.2 |
| 20260506010054 | 79 | 167 | 3.5 | 9.6 | 0.00 | 0.00 | 0.00 | 84 | 1006.1 |
| 20260506004547 | 80 | 165 | 5.2 | 11.3 | 0.00 | 0.00 | 0.00 | 82 | 1005.9 |
| 20260506003047 | 80 | 144 | 4.3 | 12.2 | 0.00 | 0.00 | 0.00 | 82 | 1005.8 |
| 20260506001551 | 80 | 157 | 5.2 | 10.4 | 0.00 | 0.00 | 0.00 | 81 | 1005.9 |
| 20260506000045 | 80 | 175 | 7.8 | 12.2 | 0.00 | 0.00 | 0.00 | 81 | 1005.8 |
| 20260505234606 | 81 | 172 | 7.8 | 13.0 | 0.00 | 0.00 | 0.00 | 81 | 1005.8 |
| 20260505233049 | 81 | 208 | 4.3 | 12.2 | 0.00 | 0.00 | 0.00 | 80 | 1005.7 |
| 20260505231545 | 82 | 247 | 3.5 | 10.4 | 0.00 | 0.00 | 0.00 | 79 | 1005.7 |
| 20260505230047 | 81 | 221 | 5.2 | 12.2 | 0.00 | 0.00 | 0.00 | 78 | 1005.6 |
| 20260505224544 | 82 | 168 | 5.2 | 13.9 | 0.00 | 0.00 | 0.00 | 78 | 1005.7 |
| 20260505223053 | 82 | 147 | 7.0 | 13.9 | 0.00 | 0.00 | 0.00 | 78 | 1005.5 |
| 20260505221543 | 82 | 180 | 4.3 | 14.8 | 0.00 | 0.00 | 0.00 | 78 | 1005.4 |
| 20260505220043 | 83 | 198 | 4.3 | 13.0 | 0.00 | 0.00 | 0.00 | 78 | 1005.7 |
| 20260505214552 | 83 | 162 | 8.7 | 13.9 | 0.00 | 0.00 | 0.00 | 78 | 1005.7 |
| 20260505213038 | 83 | 176 | 6.1 | 14.8 | 0.00 | 0.00 | 0.00 | 78 | 1005.9 |
| 20260505211542 | 83 | 160 | 7.8 | 16.5 | 0.00 | 0.00 | 0.00 | 78 | 1006.2 |
| 20260505210034 | 83 | 171 | 7.0 | 14.8 | 0.00 | 0.00 | 0.00 | 77 | 1006.4 |
| 20260505204534 | 83 | 177 | 6.1 | 13.9 | 0.00 | 0.00 | 0.00 | 78 | 1006.5 |
| 20260505203049 | 84 | 167 | 7.0 | 14.8 | 0.00 | 0.00 | 0.00 | 75 | 1006.8 |
| 20260505201529 | 84 | 194 | 6.1 | 17.4 | 0.00 | 0.00 | 0.00 | 76 | 1007.0 |
| 20260505200027 | 83 | 230 | 8.7 | 16.5 | 0.00 | 0.00 | 0.00 | 77 | 1006.9 |
| 20260505194525 | 83 | 138 | 7.8 | 16.5 | 0.00 | 0.00 | 0.00 | 77 | 1007.4 |
| 20260505193024 | 83 | 167 | 7.0 | 16.5 | 0.00 | 0.00 | 0.00 | 77 | 1007.5 |
| 20260505191523 | 83 | 192 | 7.8 | 13.9 | 0.00 | 0.00 | 0.00 | 78 | 1007.7 |
| 20260505190019 | 82 | 236 | 6.1 | 13.9 | 0.00 | 0.00 | 0.00 | 80 | 1007.7 |
| 20260505184525 | 82 | 231 | 6.1 | 14.8 | 0.00 | 0.00 | 0.00 | 80 | 1007.8 |
| 20260505183021 | 81 | 161 | 7.0 | 18.2 | 0.00 | 0.00 | 0.00 | 82 | 1007.9 |